Powrót do katalogu

STARLINK-3960

AktywnyŁącznośćVLEO
NORAD 52659·PAYLOAD·🇺🇸 United States

Wystrzelony May 18, 2022 z Cape Canaveral Space Force Station

Loading…

Następne Przeloty (najbliższe 24 godziny)

TLE

ŚwieżeSource: CelesTrak SupGP

Epoka: Sep 14, 2026, 21:57 UTC

1 52659C 22053D   26257.91506944 -.00017054  00000+0 -51753-3 0  2578
2 52659  53.1592  13.7819 0001261  76.4215 351.0434 15.33555084    18

Śledź STARLINK-3960 w czasie rzeczywistym z AllMySat

Download on the App Store